User: anonymous   Login
Location: Casteau
(50.5142°N, 4.0161°E)
Time: 09:21:03
(UTC+00:00)
Language:

Transit 4A - Orbit

View from above orbital plane
View from above orbital plane
View from above satellite
View from above satellite

Ground track
Ground track

The orbit data is extracted from the following two-line orbital elements,

1 00116U 61015A   21211.71213371 -.00000061  00000-0  12259-4 0  9994
2 00116  66.8102 290.1640 0068598  82.2043 278.6818 13.91793977 48615
Epoch (UTC): 30 July 2021 17:05:28
Eccentricity: 0.0068598
inclination: 66.8102°
perigee height: 872 km
apogee height: 972 km
right ascension of ascending node: 290.1640°
argument of perigee: 82.2043°
revolutions per day: 13.91793977
mean anomaly at epoch: 278.6818°
orbit number at epoch: 4861

The dashed part of the orbit path shows where the satellite is in the earth's shadow,  

DLR